Flag Weather past 2 weeks in Gomel, Belarus

Now
12 °F

Clear.


Feels Like: 12 °F
Forecast: 19 / 26 °F
Wind: 1 mph from North

Location: Gomel'

Current Time: Nov 28, 2014 at 1:04:47 AM

Latest Report: Nov 28, 2014 at 12:00 AM


Visibility: 10 mi

Pressure: 30.39 "Hg

Humidity: 85%

Dew point: 9 °F

Location of GomelLocation

Historic Weather in Gomel — Graph

°F

Gomel temperature yesterday

Maximum temperature yesterday: 23 °F (at 2:00 PM)
Minimum temperature yesterday: 12 °F (at 12:00 AM)
Average temperature yesterday: 17 °F

Past Weeks' High & Low Weather Summary

 TemperatureHumidityPressure
High43 °F (Nov 13, 12:00 AM)100% (Nov 13, 11:00 PM)30.63 "Hg (Nov 13, 11:00 PM)
Low12 °F (Nov 27, 12:00 AM)0% (Nov 20, 6:30 PM)30.21 "Hg (Nov 12, 11:00 PM)
Average30 °F78%30.40 "Hg
* Reported Nov 12 11:00 PM — Nov 27 11:00 PM, Gomel, Weather by CustomWeather, © 2014

Note: Actual official high and low records may vary slightly from our data, if they occured in-between our weather recording intervals... More about our weather records

Advertising

Gomel weather history for previous 24 hours

 ConditionsComfort  
Time TempWeatherWind HumidityBarometerVisibility
11:00 PM
Nov 27
12 °FClear.1 mph85%30.39 "Hg10 mi
10:00 PM12 °FClear.3 mph85%30.39 "Hg10 mi
9:00 PM12 °FClear.6 mph85%30.39 "Hg10 mi
8:00 PM12 °FClear.6 mph85%30.39 "Hg10 mi
7:00 PM14 °FClear.6 mph85%30.39 "Hg10 mi
6:30 PM16 °FClear.6 mph79%30.39 "Hg10 mi
6:00 PM16 °FPassing clouds.6 mph79%30.39 "HgN/A
5:30 PM18 °FBroken clouds.6 mph79%30.39 "HgN/A
5:00 PM18 °FBroken clouds.3 mph79%30.39 "HgN/A
4:30 PM21 °FBroken clouds.3 mph74%30.39 "HgN/A
4:00 PM21 °FSunny.6 mph74%30.39 "Hg10 mi
3:30 PM21 °FSunny.6 mph80%30.39 "Hg10 mi
3:00 PM21 °FSunny.6 mph80%30.39 "Hg10 mi
2:30 PM23 °FBroken clouds.6 mph80%30.39 "HgN/A
2:00 PM23 °FPartly sunny.6 mph80%30.39 "HgN/A
1:30 PM19 °FPartly sunny.6 mph79%30.39 "HgN/A
1:00 PM19 °FPartly sunny.3 mph79%30.39 "HgN/A
12:30 PM19 °FBroken clouds.3 mph86%30.39 "HgN/A
12:00 PM19 °FLight snow. Broken clouds.3 mph86%30.39 "HgN/A
11:30 AM19 °FLight snow. Partly sunny.3 mph86%30.39 "HgN/A
11:00 AM19 °FLight snow. Partly sunny.6 mph86%30.39 "HgN/A
10:30 AM18 °FSunny.6 mph86%30.39 "Hg10 mi
10:00 AM18 °FSunny.3 mph86%30.39 "Hg10 mi
9:30 AM14 °FClear.3 mph92%30.39 "Hg10 mi
9:00 AM14 °FClear.3 mph92%30.39 "Hg10 mi
8:30 AM14 °FClear.3 mph85%30.39 "Hg10 mi
8:00 AM14 °FClear.3 mph85%30.39 "Hg10 mi
7:30 AM14 °FClear.3 mph85%30.39 "Hg10 mi
7:00 AM14 °FClear.3 mph85%30.39 "Hg10 mi
6:30 AM16 °FClear.3 mph93%30.39 "Hg10 mi
6:00 AM16 °FClear.6 mph93%30.39 "Hg10 mi
5:00 AM18 °FClear.6 mph93%30.39 "Hg6 mi
4:00 AM18 °FClear.1 mph93%30.42 "Hg6 mi
3:00 AM16 °FClear.1 mph93%30.42 "Hg5 mi
2:00 AM12 °FClear.1 mph92%30.42 "Hg5 mi
1:00 AM12 °FClear.1 mph92%30.42 "Hg4 mi
Weather by CustomWeather, © 2014

See weather overviewHow to use our weather pages